Aeroporto :
LOGIN :

Iscrizione | Disclaimer

   EN    FR    IT 

 










Sommario :    VFR   VFR Marginale   IFR   IFR Intensivo   IFR Molto Intensivo
Visibilità : 
Base nubi : 
>= 8 km
>= 3000ft
5 / 8 km
1000 / 3000 ft
1500m / 5 km
500 / 1000 ft
800 / 1500m
200 / 500 ft
< 800m
< 200 ft
Simboli :   Temporali  Nebbia  Neve Forte  Precipitazioni Forti  Vento > 20 kt
SIGMETs :   Varie  Temporali  Ghiacco  Turbolenza  Onda orograficha  Ceneri Vulcaniche







- Altitudine del aeroporto : 28 ft
- Codice IATA : SOZ
- Carte del aeroporto


LFKS - Solenzara

ULTIMO METAR :
  • 170900Z AUTO 12007KT 090V160 CAVOK 24/19 Q1015

METARs OBSOLETI :
  • 170830Z AUTO 11007KT 090V150 CAVOK 24/18 Q1015
  • 170800Z AUTO 12005KT 090V190 CAVOK 24/19 Q1015
  • 170730Z AUTO 12004KT 070V160 CAVOK 23/19 Q1015
  • 170700Z AUTO 07003KT 340V120 CAVOK 23/18 Q1015
  • 170630Z AUTO 34003KT 300V020 9999 FEW011 22/18 Q1015

TAF TAF LFKS
Valido dal 17 a 09 ore il 18 a 09 ore UTC


170800Z 1709/1809 12005KT CAVOK
Nessun NOTAM noto per questo aeroporto.



MetMap, La meteo Aeronautica in un colpo d'occhio ! - Copyright ORBIFLY Dicembre 2007 - Disclaimer

ORBIFLY MET'MAP TEAM :

Programmazione e sviluppo : Alexandra Zaïnal
Concezione e sviluppo : Baudouin d'Aumeries
Co-Programmazione e sviluppo : Marc-Olivier Méhu
Supporto tecnico e logistico : Manuel Goepfert
Aiuto per la traduzione : Arnaldo La Scala

Contatto : metmap@orbifly.com




FONTI E CREDITI :

   NOAA